Regional Weather Roundup
Issued by NWS Boston, MA

Home | Current Version | Previous Version | Text Only | Print | Product List | Glossary On
Versions: 1 2 3 4 5 6 7 8 9 10 11 12 13 14 15 16 17 18 19 20 21 22 23 24 25 26 27 28 29 30 31 32 33 34 35 36 37 38 39 40 41 42 43 44 45 46 47 48 49 50
000
ASUS41 KBOX 282310
RWRBOX

REGIONAL WEATHER ROUNDUP
NATIONAL WEATHER SERVICE TAUNTON MA
600 PM EST SAT FEB 28 2015

NOTE:  "FAIR" INDICATES FEW OR NO CLOUDS BELOW 12,000 FEET WITH NO
SIGNIFICANT WEATHER AND/OR OBSTRUCTIONS TO VISIBILITY.  THE FOLLOWING
OBSERVATION LOCATIONS DO NOT REPORT PRESENT WEATHER...PROVINCETOWN...
SMITHFIELD...BLOCK ISLAND...KEENE...AND OXFORD.

MAZALL-010000-
EASTERN MASSACHUSETTS

CITY           SKY/WX    TMP DP  RH WIND       PRES   REMARKS
BOSTON         PTCLDY    29   0  28 W8        30.69R WCI  21
BEVERLY        CLEAR     25  -1  32 SW3       30.67R
LAWRENCE       CLEAR     24   4  42 CALM      30.68R
BEDFORD        CLEAR     26  -2  29 S5        30.66S WCI  20
BLUE HILL        N/A     23  -1  35 W9        30.64R WCI  13
NORWOOD        CLEAR     25  -3  29 W5        30.69R WCI  19
MARSHFIELD     CLEAR     25  12  58 CALM      30.71R
PLYMOUTH       CLEAR     17   0  47 SW5       30.69R WCI  10
TAUNTON        CLEAR     26   5  40 SW6       30.69R WCI  19
NEW BEDFORD    CLEAR     23   8  52 SW8       30.70R WCI  14
$$

MAZALL-010000-
CAPE COD AND THE ISLANDS

CITY           SKY/WX    TMP DP  RH WIND       PRES   REMARKS
FALMOUTH       CLEAR     21   9  58 SW9       30.70R WCI  11
HYANNIS        CLEAR     22   9  57 SW9       30.69R WCI  12
CHATHAM        CLEAR     24  11  57 CALM      30.71R
PROVINCETOWN   CLEAR     18   5  57 CALM      30.70R
NANTUCKET      CLEAR     22   7  52 W7        30.72R WCI  13
MARTHAS VNYRD  CLEAR     21   4  47 SW5       30.71R WCI  15
$$

MAZALL-010000-
CENTRAL AND WESTERN MASSACHUSETTS

CITY           SKY/WX    TMP DP  RH WIND       PRES   REMARKS
WORCESTER      CLEAR     20  -1  40 W7        30.62R WCI  11
FITCHBURG      CLEAR     26  -3  28 SW5       30.66R WCI  20
ORANGE         CLEAR     25  -3  29 W6        30.65R WCI  18
SPRINGFIELD    CLEAR     23   1  38 W5        30.67S WCI  17
WESTFIELD      CLEAR     26  -2  29 W7        30.69R WCI  18
NORTH ADAMS    CLEAR     19   1  45 VRB3      30.67S
PITTSFIELD     CLEAR     17   0  47 W6        30.62S WCI   9
$$

RIZALL-010000-
RHODE ISLAND

CITY           SKY/WX    TMP DP  RH WIND       PRES   REMARKS
PROVIDENCE     PTCLDY    25  13  60 CALM      30.70S
NEWPORT        CLEAR     25  13  60 SW5       30.70R WCI  19
BLOCK ISLAND   CLEAR     25  10  54 W9        30.70R WCI  15
SMITHFIELD     CLEAR     23  -6  28 W5        30.66R WCI  17
WESTERLY       CLEAR     25  13  60 W7        30.72R WCI  17
$$

CTZALL-010000-
CONNECTICUT

CITY           SKY/WX    TMP DP  RH WIND       PRES   REMARKS
BRADLEY INTL   PTCLDY    27   2  34 NW7       30.69R WCI  19
HARTFORD       CLEAR     28   1  31 W6        30.72R WCI  22
BRIDGEPORT     CLEAR     26  12  55 SW9       30.74R WCI  17
DANBURY        CLEAR     20   1  43 CALM      30.72R
GROTON         CLEAR     24  14  65 W12       30.72R WCI  13
NEW HAVEN      PTCLDY    27  12  53 SW8       30.73R WCI  19
CHESTER        FAIR      27  12  54 SW6       30.70S WCI  20
MERIDEN        CLEAR     27  -2  28 W6        30.72R WCI  20
WILLIMANTIC    CLEAR     26   3  37 CALM      30.70S
OXFORD         CLEAR     25  -2  30 CALM      30.69R
$$

MEZ002-015-021-024-NHZ003-005-008-011-012-014-VTZ005-008-010000-
NORTHERN NEW ENGLAND

CITY           SKY/WX    TMP DP  RH WIND       PRES   REMARKS
PORTLAND ME    CLEAR     23  10  57 CALM      30.64S
BANGOR ME      CLEAR     21  -1  38 S5        30.60R WCI  15
CONCORD NH     CLEAR     25  -3  29 N7        30.64R WCI  17
MANCHESTER NH  CLEAR     30  -1  26 VRB5      30.63S WCI  25
NASHUA NH      CLEAR     22   6  50 CALM      30.66S
PORTSMOUTH NH  CLEAR     27  -3  27 S5        30.64R WCI  21
JAFFREY NH     CLEAR     18   3  52 CALM      30.60S
KEENE NH       CLEAR     25  -2  30 N5        30.65R WCI  19
BURLINGTON VT  CLEAR     21   0  39 SW6       30.65S WCI  13
MT. WASHINGTON CLEAR      0 -17  46 NW38        N/A  WCI -29
$$

NYZ052-076-010000-
EASTERN NEW YORK

CITY           SKY/WX    TMP DP  RH WIND       PRES   REMARKS
ALBANY         PTCLDY    23   1  38 N6        30.72S WCI  16
NEW YORK CITY  PTCLDY    29   3  33 NW3       30.74S
$$

ANZALL-010000-
MARINE OBSERVATIONS

STATION/POSITION TIME  TEMP    WIND        PRES    VSBY  WAVE
                       AIR SEA DIR/SP/G                  HT/PER
                 (UTC) (F)     (DEG/KT/KT) (MB)    (MI)  (FT/S)
BOSTON BUOY      2250   28 37  200/  6/ 10 1039.3R         2/10
BUZZARDS BAY     2300          230/ 12/ 13 1040.6R
NANTUCKET SOUND  2250   26 31  230/ 14/ 14 1040.1R         0
MASS BAY-STELLWA NOT AVBL
ISLE OF SHOALS   2300   29     230/ 12/ 13 1037.6R
S OF BLOCK IS    2208      37                N/A           2/ 9
$$

......................KEY.........................
  SKY/WX - SKY CONDITION/PRESENT WEATHER
  TMP    - TEMPERATURE IN FAHRENHEIT
  DWPT   - DEWPOINT IN FAHRENHEIT
  RH     - RELATIVE HUMIDITY IN PERCENT
  WIND   - DIRECTION AND SPEED IN MPH
  PRES   - MEAN SEA LEVEL PRESSURE IN INCHES OF HG
  WCI    - WIND CHILL INDEX
  VSB    - VISIBILITY IN MILES
  HX     - HEAT INDEX
  TC     - TEMPERATURE IN CELSIUS
  VRB    - VARIABLE WIND DIRECTION
  N/A    - NOT AVAILABLE



USA.gov is the U.S. government's official web portal to all federal, state and local government web resources and services.